默认 日期 大小 文件数 浏览量 最新下载 xml
place磁力链接相关资源由用户搜索指令自动获取,结果来源于网络,本站不存储任何资料,亦不承担任何责任,请于24小时内删除,搜索到14975个磁力,显示前4000条数据,用时4ms。
    ... Media).mkv": 974915131, "The Good Place S03E04 (2018) 720p WEBRip ( ... ).mkv": 657644292, "The Good Place S03E05 (2018) 720p WEBRip ( ... ).mkv": 963836833, "The Good Place S03E06 (2018) 720p WEBRip ( ... ).mkv": 743654609, "The Good Place S03E07 (2018) 720p WEBRip ( ...
创建时间: 2019-01-22 00:22:52 大小:8.76 GB 文件数量:11 热度:6 最近下载:2022-11-15 19:54:55
    {"Torrents NFO.txt": 6268, "ALonelyPlacetoDieBD.jpg": 134159, "A.Lonely.Place.To.Die.2011.BRRip.XviD-ViP3R.avi": 734244864, "A.Lonely.Place.To.Die.2011.BRRip.XviD-ViP3R.nfo": 2133, "A.Lonely.Place.To.Die.2011.BRRip.XviD-ViP3R(Sample).avi": 7208446}
创建时间: 2019-01-22 01:28:11 大小:707.24 MB 文件数量:5 热度:4 最近下载:2022-11-12 10:55:45
    {"1.jpg": 205148, "2.jpg": 297746, "3.jpg": 194422, "4.jpg": 289598, "5.jpg": 749518, "6.jpg": 368550, "Cover.jpg": 157610, "sample .avi": 10485833, "ReadME!!!.txt": 468, "A Quiet Place 2018 1080p BluRay x264 DTS - M2Tv.avi": 788206744}
创建时间: 2019-01-22 01:44:48 大小:763.85 MB 文件数量:10 热度:5 最近下载:2022-11-15 18:58:14
    ... , "Disney s Wizards Of Waverly Place - Seizoen 1 - Disc 3-3 ...
创建时间: 2019-01-22 01:50:23 大小:4.34 GB 文件数量:137 热度:10 最近下载:2025-02-20 07:08:01
    ... avi": 284567350, "The.Good.Place.S03E04.400p.ColdFilm.avi": ... 306171268, "The.Good.Place.S03E05.400p.ColdFilm.avi": ... 303804572, "The.Good.Place.S03E06.400p.ColdFilm.avi": ... avi": 284497486, "The.Good.Place.S03E01E02.400p.ColdFilm.avi": 555252268}
创建时间: 2019-01-22 02:47:56 大小:3.29 GB 文件数量:11 热度:4 最近下载:2022-11-12 09:39:44
    {"sample.mkv": 31169967, "wplace.mkv": 1595546453, "wplace.nfo": 6834}
创建时间: 2019-01-22 02:59:37 大小:1.52 GB 文件数量:3 热度:4 最近下载:2022-11-15 19:45:04
    {"The.Good.Place.S02E01.720p.HDTV.x264-KILLERS.mkv": 1054522273, "the.good.place.s02e01.720p.hdtv.x264-killers.nfo": 10878}
创建时间: 2019-01-22 04:23:57 大小:1005.68 MB 文件数量:2 热度:4 最近下载:2022-11-12 10:43:11
    ... .torrenting.com.txt": 86, "A.Place.To.Call.Home.S06E06.720p ... .x265-MeGusta.mkv": 250374762, "A.Place.To.Call.Home.S06E06.720p ...
创建时间: 2019-01-22 04:32:23 大小:244.1 MB 文件数量:7 热度:4 最近下载:2022-11-15 18:46:39
    {"poster.jpg": 45351, "wow720.mp4": 712426504, "screens.jpg": 285672, "RARBG.com.txt": 33}
创建时间: 2019-01-22 04:50:34 大小:679.74 MB 文件数量:4 热度:19 最近下载:2025-02-10 06:27:02
    {"rubens.place.avi": 480924574}
创建时间: 2019-01-22 05:24:03 大小:458.65 MB 文件数量:1 热度:4 最近下载:2022-11-12 09:37:07
    ... We Come From The Same Place.mp3": 11170496}
创建时间: 2019-01-22 05:56:51 大小:92.37 MB 文件数量:12 热度:8 最近下载:2025-08-02 12:17:05
    {"pm.mia.lelani_950.mp4": 454858968, "Torrent Downloads piratepublic.com.rtf": 549891, "Torrent Downloads piratepublic.com.txt": 235}
创建时间: 2019-01-22 06:11:54 大小:434.31 MB 文件数量:3 热度:7 最近下载:2025-08-07 15:51:04
    {"01 Momma's Place.mp3": 6482121, "02 Momma's Place (Bongo Boys Remix).mp3": 9097102, "04 Momma's Place (Shake Aletti Remix).mp3": 5969933, "03 Momma's Place (Kanji Kinetic Remix).mp3": 7028207}
创建时间: 2019-01-22 07:05:43 大小:27.25 MB 文件数量:4 热度:6 最近下载:2025-08-08 18:12:02
    ... .by.Dawn.S01E03.A.Quiet.Place.WEBRip.x264-CAFFEiNE.mkv": 322065677 ... .by.dawn.s01e03.a.quiet.place.webrip.x264-caffeine.nfo": 467 ...
创建时间: 2019-01-22 09:21:29 大小:308.05 MB 文件数量:7 热度:8 最近下载:2025-08-05 11:29:09
    {"CodecFix": {"CodecFix.z": 3292266, "Readme.txt": 242}, "Readme.txt": 242, "A Quiet Place 2018 720p BrRip x264 - REWARD.wma": 756214320}
创建时间: 2019-01-22 09:59:20 大小:724.32 MB 文件数量:4 热度:8 最近下载:2025-08-04 10:39:07
    ... Me.mp3": 4727005, "14 A Place in the Sun.mp3": 4136950 ...
创建时间: 2019-01-22 10:11:42 大小:49.45 MB 文件数量:14 热度:6 最近下载:2025-08-06 04:10:01
    ... .by.Dawn.S01E03.A.Quiet.Place.WEBRip.x264-CAFFEiNE.mkv": 322065677 ... .by.dawn.s01e03.a.quiet.place.webrip.x264-caffeine.nfo": 467 ...
创建时间: 2019-01-22 10:33:07 大小:308.05 MB 文件数量:7 热度:6 最近下载:2025-08-03 15:53:01
    {"A Quiet Place 2018 TW Blu-Ray 1080p AVC Atmos TrueHD7.1-TTG.iso": 35920609280}
创建时间: 2019-01-22 10:45:52 大小:33.45 GB 文件数量:1 热度:27 最近下载:2025-08-08 17:50:01
    {"v200091 - Mira_720.nfo": 133, "v200091 - Mira_720.wmv": 923562126}
创建时间: 2019-01-22 11:29:15 大小:880.78 MB 文件数量:2 热度:14 最近下载:2025-08-03 18:56:07
    {"1.png": 1047587, "2.png": 976931, "3.png": 843804, "4.png": 805177, "sample.mp4": 40703775, "This Must Be the Place.mp4": 2560803603, "MZON3-This Must Be the Place.txt": 1538, "This Must Be the Place[english subs]MZON3.srt": 61299}
创建时间: 2019-01-22 11:52:33 大小:2.43 GB 文件数量:8 热度:5 最近下载:2025-08-02 03:43:02